Regional Weather Roundup
Issued by NWS Columbia, SC

Home | Current Version | Previous Version | Text Only | Print | Product List | Glossary On
Versions: 1 2 3 4 5 6 7 8 9 10 11 12 13 14 15 16 17 18 19 20 21 22 23 24 25 26 27 28 29 30 31 32 33 34 35 36 37 38 39 40 41 42 43 44 45 46 47 48 49 50
000
ASUS42 KCAE 110110
RWRCAE
REGIONAL WEATHER ROUNDUP
NATIONAL WEATHER SERVICE COLUMBIA SC
800 PM EST WED FEB 10 2016

NOTE: "FAIR" INDICATES FEW OR NO CLOUDS BELOW 12,000 FEET WITH NO
SIGNIFICANT WEATHER AND/OR OBSTRUCTIONS TO VISIBILITY.

NOT ALL STATIONS ARE QUALITY CONTROLLED BY THE NATIONAL
WEATHER SERVICE. USE DATA WITH CAUTION...ESPECIALLY
DEWPOINT OBSERVATIONS.

SCZ001>056-GAZ040-063>065-077-110200-
...UPSTATE SOUTH CAROLINA...

CITY           SKY/WX    TMP DP  RH WIND       PRES   REMARKS
ANDERSON       MOCLDY    32   4  30 W15G24    30.07R WCI  22
LIBERTY        PTCLDY    30   7  38 W14G22    30.05R WCI  19
SPARTANBURG    PTCLDY    32   5  32 W12       30.04R WCI  23
CLEMSON        PTCLDY    32   4  30 W14G20    30.07R WCI  22
GREENVILLE     CLEAR     30   6  36 SW10      30.04R WCI  21
GREENWOOD      CLEAR     32   9  38 W10       30.10R WCI  24
GREER          PTCLDY    30   9  41 W16G22    30.03R WCI  19
ROCK HILL      CLEAR     30   7  37 CALM      30.03R
LAURENS        CLEAR     32   9  37 W6        30.06R WCI  26


...CENTRAL SOUTH CAROLINA...

CITY           SKY/WX    TMP DP  RH WIND       PRES   REMARKS
COLUMBIA APT   CLEAR     34   9  35 SW6       30.09R WCI  29
COLUMBIA OWENS CLEAR     35   9  33 W7        30.11R WCI  29
MCENTIRE ANGB  CLEAR     33  10  38 W9        30.09R WCI  25
ORANGEBURG     CLEAR     33  12  41 W7        30.11R WCI  27
SUMTER SHAW    PTCLDY    33  10  36 W13       30.06R WCI  24
NEWBERRY       CLEAR     32  12  43 W10G17    30.10R WCI  24
AIKEN          FAIR      32  10  40 SW9       30.12S WCI  24
BARNWELL       FAIR      36  14  41 CALM      30.13R
MANNING        FAIR      34  10  37 W7        30.10R WCI  28
CAMDEN         FAIR      32  32 100 CALM      30.07R
LANCASTER      CLEAR     32   7  34 SW8       30.04R WCI  25
WINNSBORO      CLEAR     32  12  43 SW6       30.06R WCI  26


...EASTERN AND COASTAL SOUTH CAROLINA...

CITY           SKY/WX    TMP DP  RH WIND       PRES   REMARKS
MYRTLE BEACH   CLEAR     36  12  38 W9        30.08R WCI  29
N MYRTLE BCH   CLEAR     35  15  44 W8        30.05R WCI  29
CONWAY         FAIR      34  14  44 CALM      30.07R
MARION         FAIR      34  14  44 W9        30.06R WCI  26
HARTSVILLE     FAIR      32  10  40 W7        30.05R WCI  26
FLORENCE       PTCLDY    33  11  39 W9        30.07R WCI  25
DARLINGTON     PTCLDY    34  10  37 SW13      30.06R WCI  25
CHARLESTON APT CLEAR     37  12  35 W8        30.12R WCI  31
MOUNT PLEASANT FAIR      37  14  38 W8        30.12R WCI  31
WALTERBORO     CLEAR     37  14  38 W7        30.14R WCI  32
BEAUFORT       CLEAR     37  13  37 W9        30.15R WCI  30


...EASTERN GEORGIA...

CITY           SKY/WX    TMP DP  RH WIND       PRES   REMARKS
AUGUSTA BUSH F CLEAR     31  13  47 SW5       30.13R WCI  26
THOMSON        PTCLDY    34  15  45 CALM      30.17R
WASHINGTON     FAIR      36  18  48 W10       30.11R WCI  28
CLAXTON        FAIR      37  21  51 SW5       30.17S WCI  34
SYLVANIA       CLEAR     36  21  54 CALM      30.15S
STATESBORO     CLEAR     40   8  26 W5        30.15S
SAVANNAH       CLEAR     37  14  38 SW8       30.17R WCI  31


...SOUTHERN NORTH CAROLINA...

CITY           SKY/WX    TMP DP  RH WIND       PRES   REMARKS
CHARLOTTE      PTCLDY    29   4  34 NW3       30.02R
MONROE         CLEAR     28   6  39 SW3       30.01R
WADESBORO      CLEAR     32   4  31 CALM      30.03R
ROCKINGHAM     CLEAR     31   7  36 W6        30.02R WCI  25
RUTHERFORDTON  CLOUDY    28   1  32 W10G18    30.02R WCI  18
ASHEVILLE      CLOUDY    23   0  36 N13       29.98R WCI  11

$$



USA.gov is the U.S. government's official web portal to all federal, state and local government web resources and services.